CFG5DK LHBP-EDDF

Flight info

Callsign CFG5DK
Flight time 1h 17m
Altitude 34000
Route GILEP DCT ZOLKU DCT BEGLA DCT DITIS DCT RAPET T170 GAPLA/N0396F240 T178 KERAX KERAX5A
Aircraft A319/M-SDE2FGHIJ1RWXY/HB1

Departure

Time 2026-05-07 09:26
Airport Budapest Liszt Ferenc International Airport (LHBP)

Arrival

Time 2026-05-07 10:43
Airport Frankfurt Main Airport (EDDF)
Time Latitude Longitude Altitude Speed Heading
2026-05-07 09:01 47.43411 19.26135 458 ft 0 kts 132°
2026-05-07 09:15 47.43412 19.26134 457 ft 1 kts 132°
2026-05-07 09:15 47.43429 19.26107 457 ft 4 kts 133°
2026-05-07 09:16 47.43447 19.26078 457 ft 3 kts 133°
2026-05-07 09:16 47.43463 19.26056 457 ft 4 kts 162°
2026-05-07 09:16 47.43484 19.26060 457 ft 4 kts 220°
2026-05-07 09:16 47.43499 19.26080 455 ft 0 kts 222°
2026-05-07 09:20 47.43499 19.26079 457 ft 1 kts 222°
2026-05-07 09:20 47.43490 19.26068 457 ft 3 kts 222°
2026-05-07 09:20 47.43472 19.26044 455 ft 4 kts 222°
2026-05-07 09:21 47.43444 19.26006 457 ft 7 kts 222°
2026-05-07 09:21 47.43420 19.25967 456 ft 8 kts 245°
2026-05-07 09:21 47.43446 19.25894 456 ft 9 kts 311°
2026-05-07 09:21 47.43489 19.25810 456 ft 11 kts 300°
2026-05-07 09:22 47.43541 19.25719 457 ft 12 kts 310°
2026-05-07 09:22 47.43489 19.25584 456 ft 14 kts 222°
2026-05-07 09:22 47.43416 19.25486 457 ft 14 kts 222°
2026-05-07 09:22 47.43364 19.25416 456 ft 16 kts 223°
2026-05-07 09:23 47.43282 19.25304 456 ft 17 kts 222°
2026-05-07 09:23 47.43210 19.25208 455 ft 14 kts 222°
2026-05-07 09:23 47.43152 19.25130 457 ft 6 kts 222°
2026-05-07 09:23 47.43148 19.25125 457 ft 0 kts 222°
2026-05-07 09:24 47.43146 19.25123 456 ft 2 kts 222°
2026-05-07 09:24 47.43127 19.25098 456 ft 5 kts 222°
2026-05-07 09:25 47.43098 19.25058 457 ft 7 kts 223°
2026-05-07 09:25 47.43082 19.24976 457 ft 11 kts 282°
2026-05-07 09:25 47.43141 19.24873 457 ft 19 kts 311°
2026-05-07 09:25 47.43438 19.24392 452 ft 108 kts 312°
2026-05-07 09:26 47.44101 19.23306 454 ft 174 kts 312°
2026-05-07 09:26 47.44942 19.21975 1314 ft 165 kts 312°
2026-05-07 09:26 47.45714 19.20793 2345 ft 158 kts 312°
2026-05-07 09:26 47.46490 19.19542 2996 ft 175 kts 310°
2026-05-07 09:27 47.47362 19.18112 3508 ft 198 kts 310°
2026-05-07 09:27 47.48312 19.16366 4024 ft 221 kts 300°
2026-05-07 09:27 47.48540 19.11508 5290 ft 264 kts 249°
2026-05-07 09:28 47.47534 19.09213 6314 ft 273 kts 224°
2026-05-07 09:28 47.45920 19.07734 7420 ft 276 kts 204°
2026-05-07 09:28 47.44165 19.06545 8588 ft 279 kts 206°
2026-05-07 09:28 47.42409 19.05279 9692 ft 283 kts 207°
2026-05-07 09:29 47.40663 19.03923 10542 ft 297 kts 212°
2026-05-07 09:29 47.38828 19.02275 11067 ft 319 kts 210°
2026-05-07 09:29 47.36835 19.00727 11911 ft 328 kts 207°
2026-05-07 09:29 47.34757 18.99266 12861 ft 333 kts 205°
2026-05-07 09:30 47.32687 18.97712 13777 ft 337 kts 214°
2026-05-07 09:30 47.31041 18.95246 14660 ft 343 kts 237°
2026-05-07 09:30 47.30228 18.91941 15507 ft 350 kts 261°
2026-05-07 09:30 47.30428 18.88349 16358 ft 359 kts 285°
2026-05-07 09:31 47.31524 18.84996 17191 ft 366 kts 298°
2026-05-07 09:31 47.32803 18.81742 17996 ft 370 kts 298°
2026-05-07 09:31 47.34082 18.78491 18761 ft 373 kts 297°
2026-05-07 09:31 47.35386 18.75160 19515 ft 378 kts 297°
2026-05-07 09:32 47.36703 18.71778 20246 ft 382 kts 297°
2026-05-07 09:32 47.38029 18.68358 20955 ft 386 kts 297°
2026-05-07 09:32 47.39364 18.64903 21649 ft 390 kts 297°
2026-05-07 09:32 47.40711 18.61402 22305 ft 394 kts 296°
2026-05-07 09:33 47.41857 18.57711 22943 ft 395 kts 287°
2026-05-07 09:33 47.42665 18.53831 23567 ft 398 kts 284°
2026-05-07 09:33 47.43464 18.49897 24170 ft 402 kts 284°
2026-05-07 09:33 47.44262 18.45978 24749 ft 406 kts 284°
2026-05-07 09:34 47.45079 18.41975 25322 ft 409 kts 284°
2026-05-07 09:34 47.45902 18.37940 25880 ft 412 kts 284°
2026-05-07 09:34 47.46728 18.33875 26407 ft 415 kts 284°
2026-05-07 09:34 47.47554 18.29783 26942 ft 417 kts 283°
2026-05-07 09:35 47.48384 18.25653 27448 ft 420 kts 283°
2026-05-07 09:35 47.49160 18.21481 27965 ft 422 kts 282°
2026-05-07 09:35 47.49870 18.17258 28459 ft 424 kts 280°
2026-05-07 09:35 47.50549 18.12999 28941 ft 427 kts 280°
2026-05-07 09:36 47.51221 18.08704 29410 ft 429 kts 280°
2026-05-07 09:36 47.51897 18.04388 29868 ft 432 kts 280°
2026-05-07 09:36 47.52577 18.00108 30308 ft 435 kts 280°
2026-05-07 09:36 47.53280 17.95749 30722 ft 437 kts 280°
2026-05-07 09:37 47.53995 17.91358 31136 ft 439 kts 280°
2026-05-07 09:37 47.54714 17.86955 31527 ft 442 kts 280°
2026-05-07 09:37 47.55516 17.82549 31904 ft 446 kts 285°
2026-05-07 09:37 47.56748 17.78308 32353 ft 450 kts 295°
2026-05-07 09:38 47.58330 17.74304 32886 ft 450 kts 297°
2026-05-07 09:38 47.59929 17.70328 33406 ft 448 kts 297°
2026-05-07 09:38 47.61511 17.66363 33848 ft 447 kts 297°
2026-05-07 09:38 47.63066 17.62448 33972 ft 445 kts 296°
2026-05-07 09:39 47.64608 17.58555 33999 ft 432 kts 297°
2026-05-07 09:39 47.67608 17.50955 33998 ft 425 kts 297°
2026-05-07 09:40 47.70576 17.43395 34000 ft 424 kts 296°
2026-05-07 09:40 47.73546 17.35834 33999 ft 424 kts 297°
2026-05-07 09:41 47.76519 17.28277 33998 ft 424 kts 296°
2026-05-07 09:41 47.79463 17.20751 33997 ft 424 kts 296°
2026-05-07 09:42 47.82418 17.13181 33993 ft 423 kts 297°
2026-05-07 09:42 47.86006 17.06168 33988 ft 427 kts 306°
2026-05-07 09:43 47.89781 16.99333 33985 ft 427 kts 306°
2026-05-07 09:43 47.93559 16.92488 33980 ft 427 kts 306°
2026-05-07 09:44 47.97312 16.85676 33980 ft 428 kts 306°
2026-05-07 09:44 48.01082 16.78802 33979 ft 428 kts 305°
2026-05-07 09:45 48.04846 16.71903 33977 ft 428 kts 305°
2026-05-07 09:45 48.08608 16.64995 33978 ft 429 kts 305°
2026-05-07 09:46 48.12381 16.58065 33980 ft 429 kts 305°
2026-05-07 09:46 48.16172 16.51087 33983 ft 429 kts 305°
2026-05-07 09:47 48.19941 16.44130 33982 ft 430 kts 305°
2026-05-07 09:47 48.23704 16.37162 33983 ft 430 kts 305°
2026-05-07 09:48 48.27459 16.30177 33985 ft 430 kts 304°
2026-05-07 09:48 48.31183 16.23234 33981 ft 430 kts 304°
2026-05-07 09:49 48.34929 16.16234 33982 ft 430 kts 304°
2026-05-07 09:49 48.38673 16.09230 33979 ft 429 kts 304°
2026-05-07 09:50 48.42414 16.02207 33977 ft 429 kts 304°
2026-05-07 09:50 48.44295 15.98668 33992 ft 440 kts 304°
2026-05-07 09:50 48.46222 15.95031 33992 ft 452 kts 304°
2026-05-07 09:51 48.50203 15.87514 33991 ft 461 kts 304°
2026-05-07 09:51 48.54190 15.79991 33989 ft 463 kts 304°
2026-05-07 09:52 48.58205 15.72387 33980 ft 463 kts 304°
2026-05-07 09:52 48.62212 15.64763 33990 ft 463 kts 304°
2026-05-07 09:53 48.66212 15.57116 33988 ft 463 kts 304°
2026-05-07 09:53 48.70179 15.49522 33986 ft 463 kts 304°
2026-05-07 09:54 48.74169 15.41867 33982 ft 463 kts 304°
2026-05-07 09:54 48.78147 15.34205 33978 ft 462 kts 304°
2026-05-07 09:55 48.82122 15.26542 33975 ft 462 kts 304°
2026-05-07 09:55 48.86084 15.18864 33976 ft 462 kts 304°
2026-05-07 09:56 48.90047 15.11156 33975 ft 462 kts 304°
2026-05-07 09:56 48.93892 15.03427 33975 ft 462 kts 302°
2026-05-07 09:57 48.97693 14.95551 33975 ft 462 kts 302°
2026-05-07 09:57 49.01496 14.87662 33975 ft 462 kts 302°
2026-05-07 09:58 49.05312 14.79781 33972 ft 462 kts 302°
2026-05-07 09:58 49.09103 14.71961 33969 ft 462 kts 302°
2026-05-07 09:59 49.12913 14.64058 33968 ft 462 kts 302°
2026-05-07 09:59 49.16714 14.56144 33967 ft 462 kts 302°
2026-05-07 10:00 49.20513 14.48211 33960 ft 462 kts 302°
2026-05-07 10:00 49.24289 14.40320 33967 ft 462 kts 302°
2026-05-07 10:01 49.28078 14.32374 33953 ft 462 kts 302°
2026-05-07 10:01 49.31862 14.24402 33956 ft 462 kts 302°
2026-05-07 10:02 49.35641 14.16416 33961 ft 463 kts 302°
2026-05-07 10:02 49.39417 14.08424 33964 ft 462 kts 302°
2026-05-07 10:03 49.43153 14.00480 33958 ft 463 kts 302°
2026-05-07 10:03 49.46925 13.92459 33955 ft 462 kts 302°
2026-05-07 10:04 49.50682 13.84431 33963 ft 463 kts 302°
2026-05-07 10:04 49.54430 13.76379 33956 ft 463 kts 302°
2026-05-07 10:05 49.58179 13.68324 33957 ft 463 kts 302°
2026-05-07 10:05 49.61902 13.60304 33961 ft 463 kts 302°
2026-05-07 10:06 49.65640 13.52219 33957 ft 463 kts 302°
2026-05-07 10:06 49.69369 13.44115 33959 ft 463 kts 302°
2026-05-07 10:07 49.73095 13.36007 33960 ft 463 kts 302°
2026-05-07 10:07 49.76793 13.27941 33960 ft 463 kts 302°
2026-05-07 10:08 49.80500 13.19803 33957 ft 463 kts 302°
2026-05-07 10:08 49.84208 13.11649 33960 ft 463 kts 302°
2026-05-07 10:09 49.87915 13.03493 33957 ft 463 kts 302°
2026-05-07 10:09 49.91615 12.95322 33952 ft 463 kts 302°
2026-05-07 10:10 49.95278 12.87183 33946 ft 463 kts 302°
2026-05-07 10:10 49.98967 12.78972 33951 ft 464 kts 302°
2026-05-07 10:11 50.02653 12.70755 33946 ft 464 kts 302°
2026-05-07 10:11 50.06345 12.62504 33949 ft 464 kts 302°
2026-05-07 10:12 50.10007 12.54286 33943 ft 464 kts 302°
2026-05-07 10:12 50.13682 12.46015 33937 ft 465 kts 302°
2026-05-07 10:13 50.17355 12.37715 33939 ft 465 kts 302°
2026-05-07 10:13 50.20225 12.28800 33940 ft 459 kts 287°
2026-05-07 10:14 50.22378 12.19400 33939 ft 460 kts 287°
2026-05-07 10:14 50.24522 12.10066 33938 ft 460 kts 287°
2026-05-07 10:15 50.26673 12.00658 33936 ft 460 kts 287°
2026-05-07 10:15 50.28838 11.91245 33949 ft 460 kts 287°
2026-05-07 10:16 50.31001 11.81815 33943 ft 460 kts 287°
2026-05-07 10:16 50.33140 11.72448 33936 ft 460 kts 287°
2026-05-07 10:17 50.35275 11.63008 33943 ft 460 kts 287°
2026-05-07 10:17 50.37395 11.53577 33764 ft 461 kts 287°
2026-05-07 10:17 50.38458 11.48863 33328 ft 451 kts 287°
2026-05-07 10:18 50.39487 11.44300 33077 ft 438 kts 287°
2026-05-07 10:18 50.40488 11.39838 32828 ft 431 kts 287°
2026-05-07 10:18 50.41471 11.35422 32578 ft 429 kts 287°
2026-05-07 10:18 50.42438 11.31066 32326 ft 428 kts 287°
2026-05-07 10:19 50.43416 11.26663 32081 ft 428 kts 287°
2026-05-07 10:19 50.44395 11.22251 31829 ft 428 kts 287°
2026-05-07 10:19 50.45370 11.17835 31586 ft 428 kts 287°
2026-05-07 10:19 50.46346 11.13413 31331 ft 429 kts 287°
2026-05-07 10:20 50.47323 11.08991 31087 ft 429 kts 287°
2026-05-07 10:20 50.48299 11.04565 30833 ft 429 kts 287°
2026-05-07 10:20 50.49274 11.00128 30582 ft 429 kts 287°
2026-05-07 10:20 50.50244 10.95705 30332 ft 427 kts 287°
2026-05-07 10:21 50.51208 10.91294 30081 ft 426 kts 287°
2026-05-07 10:21 50.52150 10.86963 29832 ft 424 kts 287°
2026-05-07 10:21 50.53101 10.82592 29588 ft 422 kts 288°
2026-05-07 10:21 50.54057 10.78235 29344 ft 421 kts 288°
2026-05-07 10:22 50.55027 10.73910 29086 ft 419 kts 288°
2026-05-07 10:22 50.56008 10.69599 28832 ft 418 kts 289°
2026-05-07 10:22 50.56985 10.65309 28589 ft 416 kts 289°
2026-05-07 10:22 50.57959 10.61036 28339 ft 414 kts 289°
2026-05-07 10:23 50.58929 10.56779 28043 ft 411 kts 289°
2026-05-07 10:23 50.59888 10.52557 27422 ft 407 kts 289°
2026-05-07 10:23 50.60837 10.48371 26706 ft 406 kts 289°
2026-05-07 10:23 50.61779 10.44197 26122 ft 402 kts 289°
2026-05-07 10:24 50.62695 10.40118 25556 ft 398 kts 289°
2026-05-07 10:24 50.63604 10.36022 24993 ft 394 kts 287°
2026-05-07 10:24 50.64151 10.31836 24459 ft 389 kts 274°
2026-05-07 10:24 50.64128 10.27600 23918 ft 386 kts 263°
2026-05-07 10:25 50.63562 10.23496 23429 ft 383 kts 251°
2026-05-07 10:25 50.62493 10.19683 22943 ft 380 kts 240°
2026-05-07 10:25 50.61225 10.16046 22450 ft 377 kts 240°
2026-05-07 10:25 50.59968 10.12440 21980 ft 374 kts 240°
2026-05-07 10:26 50.58726 10.08863 21490 ft 371 kts 241°
2026-05-07 10:26 50.57494 10.05314 21020 ft 368 kts 240°
2026-05-07 10:26 50.56267 10.01785 20546 ft 365 kts 240°
2026-05-07 10:26 50.55069 9.98347 20082 ft 362 kts 240°
2026-05-07 10:27 50.53998 9.94778 19620 ft 360 kts 249°
2026-05-07 10:27 50.53288 9.91015 19172 ft 358 kts 253°
2026-05-07 10:27 50.52619 9.87271 18721 ft 355 kts 253°
2026-05-07 10:27 50.51949 9.83554 18266 ft 353 kts 253°
2026-05-07 10:28 50.51280 9.79864 17824 ft 350 kts 253°
2026-05-07 10:28 50.50614 9.76193 17381 ft 348 kts 253°
2026-05-07 10:28 50.49956 9.72552 16941 ft 345 kts 253°
2026-05-07 10:28 50.49319 9.68930 16494 ft 343 kts 254°
2026-05-07 10:29 50.48699 9.65322 16051 ft 341 kts 254°
2026-05-07 10:29 50.47892 9.61850 15616 ft 338 kts 243°
2026-05-07 10:29 50.46590 9.58811 15168 ft 336 kts 229°
2026-05-07 10:30 50.42849 9.54578 14289 ft 333 kts 206°
2026-05-07 10:30 50.40777 9.52977 13856 ft 331 kts 207°
2026-05-07 10:30 50.38745 9.51406 13434 ft 330 kts 207°
2026-05-07 10:30 50.36695 9.49821 13010 ft 328 kts 207°
2026-05-07 10:31 50.34654 9.48240 12601 ft 327 kts 207°
2026-05-07 10:31 50.32620 9.46668 12185 ft 325 kts 207°
2026-05-07 10:31 50.30598 9.45109 11764 ft 323 kts 207°
2026-05-07 10:31 50.28595 9.43564 11342 ft 321 kts 207°
2026-05-07 10:32 50.26709 9.41720 10929 ft 318 kts 220°
2026-05-07 10:32 50.25180 9.39256 10528 ft 315 kts 233°
2026-05-07 10:32 50.24085 9.36336 10219 ft 306 kts 247°
2026-05-07 10:32 50.23368 9.33292 10081 ft 292 kts 251°
2026-05-07 10:33 50.22685 9.30343 9804 ft 285 kts 250°
2026-05-07 10:33 50.22022 9.27482 9680 ft 284 kts 250°
2026-05-07 10:33 50.21350 9.24590 9359 ft 283 kts 250°
2026-05-07 10:33 50.20681 9.21707 8965 ft 281 kts 250°
2026-05-07 10:34 50.20018 9.18850 8540 ft 280 kts 250°
2026-05-07 10:34 50.19357 9.16007 8139 ft 278 kts 250°
2026-05-07 10:34 50.18700 9.13184 7732 ft 276 kts 250°
2026-05-07 10:34 50.18045 9.10382 7326 ft 274 kts 250°
2026-05-07 10:35 50.17388 9.07634 6931 ft 271 kts 250°
2026-05-07 10:35 50.16734 9.04879 6528 ft 265 kts 250°
2026-05-07 10:35 50.16135 9.02314 6391 ft 244 kts 250°
2026-05-07 10:35 50.15574 8.99908 6323 ft 229 kts 250°
2026-05-07 10:36 50.15038 8.97616 6241 ft 216 kts 250°
2026-05-07 10:36 50.14543 8.95504 6167 ft 204 kts 250°
2026-05-07 10:36 50.14063 8.93456 5975 ft 200 kts 250°
2026-05-07 10:36 50.13587 8.91423 5750 ft 198 kts 250°
2026-05-07 10:37 50.13282 8.90120 5547 ft 196 kts 250°
2026-05-07 10:37 50.12659 8.87465 5181 ft 191 kts 250°
2026-05-07 10:37 50.12206 8.85544 4901 ft 187 kts 250°
2026-05-07 10:37 50.11776 8.83716 4651 ft 185 kts 250°
2026-05-07 10:38 50.11323 8.81793 4362 ft 182 kts 250°
2026-05-07 10:38 50.10890 8.79953 4129 ft 180 kts 251°
2026-05-07 10:38 50.10595 8.78702 3948 ft 178 kts 250°
2026-05-07 10:38 50.10168 8.76898 3708 ft 177 kts 251°
2026-05-07 10:39 50.09745 8.75110 3450 ft 173 kts 250°
2026-05-07 10:39 50.09342 8.73402 3213 ft 165 kts 250°
2026-05-07 10:39 50.08959 8.71787 2995 ft 152 kts 251°
2026-05-07 10:39 50.08616 8.70336 2780 ft 136 kts 251°
2026-05-07 10:40 50.08297 8.68994 2595 ft 129 kts 251°
2026-05-07 10:40 50.07993 8.67712 2419 ft 127 kts 251°
2026-05-07 10:40 50.07679 8.66388 2237 ft 126 kts 251°
2026-05-07 10:40 50.07371 8.65090 2056 ft 126 kts 251°
2026-05-07 10:41 50.07065 8.63801 1877 ft 125 kts 250°
2026-05-07 10:41 50.06763 8.62529 1697 ft 125 kts 251°
2026-05-07 10:41 50.06462 8.61264 1522 ft 125 kts 251°
2026-05-07 10:41 50.06160 8.59997 1347 ft 125 kts 251°
2026-05-07 10:42 50.05859 8.58732 1164 ft 125 kts 251°
2026-05-07 10:42 50.05561 8.57483 996 ft 124 kts 251°
2026-05-07 10:42 50.05263 8.56229 819 ft 124 kts 250°
2026-05-07 10:42 50.04964 8.54974 645 ft 124 kts 250°
2026-05-07 10:43 50.04667 8.53722 466 ft 124 kts 250°
2026-05-07 10:43 50.04374 8.52476 356 ft 113 kts 250°
2026-05-07 10:43 50.04192 8.51737 334 ft 32 kts 244°
2026-05-07 10:43 50.04120 8.51575 332 ft 22 kts 231°
2026-05-07 10:44 50.03994 8.51392 330 ft 5 kts 219°
2026-05-07 10:44 50.03959 8.51359 332 ft 3 kts 199°
2026-05-07 10:44 50.03952 8.51359 331 ft 1 kts 181°
2026-05-07 10:45 50.03931 8.51375 333 ft 6 kts 142°
2026-05-07 10:45 50.03914 8.51448 335 ft 8 kts 93°
2026-05-07 10:45 50.03931 8.51547 333 ft 10 kts 70°
2026-05-07 10:45 50.03958 8.51661 335 ft 12 kts 69°
2026-05-07 10:46 50.03989 8.51788 334 ft 14 kts 69°
2026-05-07 10:46 50.04024 8.51936 334 ft 15 kts 69°
2026-05-07 10:46 50.04060 8.52091 339 ft 16 kts 70°
2026-05-07 10:46 50.04099 8.52254 350 ft 16 kts 69°
2026-05-07 10:47 50.04142 8.52428 349 ft 19 kts 69°
2026-05-07 10:47 50.04192 8.52638 353 ft 23 kts 70°
2026-05-07 10:47 50.04250 8.52884 355 ft 25 kts 70°
2026-05-07 10:47 50.04310 8.53134 362 ft 24 kts 69°
2026-05-07 10:48 50.04364 8.53358 371 ft 21 kts 69°
2026-05-07 10:48 50.04399 8.53556 376 ft 19 kts 83°
2026-05-07 10:48 50.04414 8.53776 376 ft 21 kts 84°
2026-05-07 10:48 50.04429 8.54007 376 ft 23 kts 84°
2026-05-07 10:49 50.04446 8.54265 375 ft 25 kts 84°
2026-05-07 10:49 50.04454 8.54433 371 ft 24 kts 95°
2026-05-07 10:50 50.04334 8.54750 358 ft 0 kts 145°
2026-05-07 10:50 50.04332 8.54753 358 ft 0 kts 145°